{"data":{"norad_id":55675,"epoch":"2026-09-20T15:47:14.492832Z","epoch_age_seconds":89463,"freshness":"FRESH","line1":"1 55675U 23021AZ  26263.65780663  .00001634  00000+0  14471-3 0  9999","line2":"2 55675  69.9982  32.6769 0004048 281.0563  79.0141 14.98339794198497","mean_motion":14.98339794,"eccentricity":0.0004048,"inclination_deg":69.9982,"raan_deg":32.6769,"arg_perigee_deg":281.0563,"mean_anomaly_deg":79.0141,"bstar":0.00014471,"rev_number":19849,"period_min":96.106370915755,"perigee_km":569.21217815022,"apogee_km":574.83902979439,"semimajor_km":6950.1626039723,"source":"CELESTRAK","updated_at":"2026-09-21T09:00:33.310723Z"}}